MST,Max TemperatureF,Mean TemperatureF,Min TemperatureF,Max Dew PointF,MeanDew PointF,Min DewpointF,Max Humidity, Mean Humidity, Min Humidity, Max Sea Level PressureIn, Mean Sea Level PressureIn, Min Sea Level PressureIn, Max VisibilityMiles, Mean VisibilityMiles, Min VisibilityMiles, Max Wind SpeedMPH, Mean Wind SpeedMPH, Max Gust SpeedMPH,PrecipitationIn, CloudCover, Events, WindDirDegrees
2012-10-1,93,73,53,40,34,28,54,28,10,30.09,29.92,29.82,10,10,10,8,4,,0.00,0,,83
2012-10-2,93,74,54,42,35,30,55,29,11,30.00,29.88,29.82,10,10,10,14,4,21,0.00,0,,85
2012-10-3,90,72,54,37,33,28,51,27,11,29.99,29.94,29.86,10,10,10,12,4,20,0.00,0,,136
2012-10-4,88,71,54,39,36,34,49,31,16,30.07,30.02,29.99,10,10,10,14,4,22,0.00,0,,190
2012-10-5,88,70,53,39,35,31,53,31,13,30.04,29.96,29.89,10,10,10,16,3,21,0.00,0,,180
2012-10-6,84,68,51,36,34,30,54,31,14,30.02,29.88,29.82,10,10,10,14,4,21,0.00,0,,195
2012-10-7,86,68,51,40,35,29,56,32,15,29.91,29.86,29.81,10,10,10,10,4,18,0.00,0,,139
2012-10-8,86,68,50,36,32,24,54,30,11,29.97,29.90,29.85,10,10,10,14,3,18,0.00,0,,183
2012-10-9,84,67,50,38,33,27,54,30,12,30.09,29.92,29.83,10,10,10,12,4,21,0.00,0,,154
2012-10-10,84,67,50,43,38,30,68,38,14,29.97,29.89,29.81,10,10,10,16,5,22,0.00,0,,173
2012-10-11,80,68,57,51,45,33,60,45,19,29.98,29.85,29.80,10,10,10,22,7,30,0.00,4,,185
2012-10-12,73,62,50,48,38,27,75,44,19,30.13,29.96,29.83,10,10,10,18,10,23,0.00,2,,224
2012-10-13,77,59,41,37,34,30,79,45,19,30.15,30.04,29.96,10,10,10,14,5,17,0.00,0,,11
2012-10-14,86,64,43,34,26,18,63,29,9,30.07,29.98,29.90,10,10,10,10,3,,0.00,0,,107
2012-10-15,86,68,51,30,22,11,39,21,6,29.96,29.90,29.84,10,10,10,15,6,20,0.00,0,,129
2012-10-16,84,65,46,34,27,23,46,27,11,30.00,29.85,29.76,10,10,10,9,3,,0.00,0,,198
2012-10-17,84,67,50,58,45,34,73,45,20,29.93,29.86,29.80,10,10,10,14,4,,0.00,1,,175
2012-10-18,82,71,60,58,52,46,83,56,30,30.01,29.93,29.87,10,10,10,10,4,16,0.00,2,,359
2012-10-19,88,70,53,49,43,37,72,42,18,29.97,29.86,29.75,10,10,10,9,3,,0.00,0,,164
2012-10-20,84,68,53,42,39,36,57,37,18,29.94,29.80,29.75,10,10,10,13,3,22,0.00,0,,184
2012-10-21,78,65,52,43,39,33,66,42,19,29.87,29.82,29.79,10,10,10,18,6,26,0.00,0,,169
2012-10-22,81,64,46,41,36,30,74,41,16,29.92,29.87,29.82,10,10,10,10,4,,0.00,0,,131
2012-10-23,82,65,48,39,35,32,63,36,17,29.98,29.85,29.80,10,10,10,14,3,21,0.00,0,,183
2012-10-24,80,64,48,38,35,31,61,38,17,29.89,29.85,29.81,10,10,10,16,4,22,0.00,0,,225
2012-10-25,79,60,42,32,23,10,62,31,7,30.04,29.92,29.86,10,10,10,10,4,,0.00,0,,3
2012-10-26,82,62,41,21,18,16,40,21,9,30.05,29.91,29.82,10,10,10,9,2,16,0.00,0,,298
2012-10-27,84,66,48,30,27,21,41,26,13,30.05,29.88,29.78,10,10,10,9,4,,0.00,0,,42
2012-10-28,84,65,46,31,28,23,50,29,11,30.11,29.94,29.88,10,10,10,9,4,,0.00,0,,132
2012-10-29,84,65,46,32,29,20,54,30,9,30.15,30.02,29.95,10,10,10,9,2,,0.00,0,,63
2012-10-30,84,65,46,32,28,25,52,30,12,30.07,29.98,29.91,10,10,10,9,2,,0.00,0,,65
2012-10-31,82,64,45,29,24,19,52,26,9,30.03,29.95,29.88,10,10,10,9,3,,0.00,0,,21